| time (UTC) | temp F | wind direction | speed knots | gust knots | rain 1hr in | rain 24hr in | rain mn in | humidity % | barometer mb |
| 20260502150408 | 53 | 273 | 0.9 | 5.2 | 0.00 | 0.05 | 0.04 | 76 | 1009.1 |
| 20260502130353 | 52 | 229 | 0.9 | 4.3 | 0.00 | 0.05 | 0.04 | 84 | 1009.8 |
| 20260502120349 | 46 | 284 | 0.9 | 1.7 | 0.00 | 0.05 | 0.04 | 93 | 1010.1 |
| 20260502021421 | 52 | 228 | 1.7 | 4.3 | 0.00 | 0.00 | 0.00 | 64 | 1009.8 |
| 20260502014418 | 53 | 222 | 1.7 | 3.5 | 0.00 | 0.00 | 0.00 | 62 | 1009.8 |
| 20260502004413 | 54 | 230 | 0.9 | 2.6 | 0.00 | 0.00 | 0.00 | 59 | 1008.8 |
| 20260502001413 | 55 | 226 | 0.9 | 1.7 | 0.00 | 0.00 | 0.00 | 57 | 1008.1 |
| 20260501234406 | 56 | 242 | 0.0 | 1.7 | 0.00 | 0.00 | 0.00 | 52 | 1007.4 |
| 20260501231404 | 57 | 232 | 0.0 | 2.6 | 0.00 | 0.00 | 0.00 | 50 | 1006.7 |
| 20260501224417 | 59 | 211 | 1.7 | 4.3 | 0.00 | 0.00 | 0.00 | 44 | 1006.7 |
| 20260501221356 | 61 | 244 | 1.7 | 6.1 | 0.00 | 0.00 | 0.00 | 40 | 1006.4 |
| 20260501214353 | 61 | 265 | 0.9 | 4.3 | 0.00 | 0.00 | 0.00 | 40 | 1006.4 |
| 20260501201347 | 63 | 310 | 2.6 | 7.0 | 0.00 | 0.00 | 0.48 | 36 | 1006.4 |
| 20260501191341 | 61 | 299 | 2.6 | 7.0 | 0.00 | 0.00 | 0.48 | 37 | 1006.4 |
| 20260501184340 | 62 | 350 | 2.6 | 7.8 | 0.00 | 0.00 | 0.48 | 36 | 1007.1 |
| 20260501181337 | 61 | 318 | 3.5 | 9.6 | 0.00 | 0.00 | 0.48 | 34 | 1007.1 |
| 20260501174334 | 59 | 341 | 2.6 | 7.8 | 0.00 | 0.00 | 0.48 | 41 | 1007.4 |
| 20260501171330 | 60 | 324 | 2.6 | 6.1 | 0.00 | 0.00 | 0.48 | 41 | 1007.7 |
| 20260501164331 | 58 | 310 | 2.6 | 7.0 | 0.00 | 0.00 | 0.48 | 39 | 1007.7 |
| 20260501161326 | 57 | 347 | 3.5 | 10.4 | 0.00 | 0.00 | 0.48 | 45 | 1008.1 |